Regional Weather Roundup
Issued by NWS

Home | Current Version | Previous Version | Graphics & Text | Print | Product List | Glossary On
Versions: 1 2 3 4 5 6 7 8 9 10 11 12 13 14 15 16 17 18 19 20 21 22 23 24 25 26 27 28 29 30 31 32 33 34 35 36 37 38 39 40 41 42 43 44 45 46 47 48 49 50
000
ASUS43 KDTX 212001
RWRMI
MICHIGAN HOURLY REGIONAL WEATHER ROUNDUP
NATIONAL WEATHER SERVICE DETROIT/PONTIAC MI
400 PM EDT THU SEP 21 2017

NOTE: "FAIR" INDICATES FEW OR NO CLOUDS BELOW 12,000 FEET WITH NO
SIGNIFICANT WEATHER AND/OR OBSTRUCTION TO VISIBILITY.

MIZ047>049-052>055-059>063-066>070-074>076-081>083-212100-
SOUTHEAST LOWER MICHIGAN

CITY           SKY/WX    TMP DP  RH WIND       PRES   REMARKS
ADRIAN         PTSUNNY   90  67  46 SW10      30.05F HX  93
ALMA           PTSUNNY   91  61  36 W7G17     30.01F HX  91
ANN ARBOR      SUNNY     91  68  46 SW9       30.04F HX  95
BAD AXE        MOSUNNY   89  71  55 S8        30.04S HX  94
CARO           SUNNY     91  68  46 S7        30.02F HX  95
DETROIT CITY   SUNNY     88  70  55 S10       30.04F HX  93
DETROIT        MOSUNNY   87  74  64 SE9       30.05F HX  95
FLINT          MOSUNNY   92  67  43 S7        30.02F HX  95
GROSSE ILE     SUNNY     81  71  71 S6        30.04F
HILLSDALE      MOSUNNY   88  66  48 S7        30.06S HX  90
HOWELL         SUNNY     91  66  42 S8        30.03F HX  94

CITY           SKY/WX    TMP DP  RH WIND       PRES   REMARKS
JACKSON        MOSUNNY   91  66  43 VRB6      30.04F HX  93
LAMBERTVILLE   SUNNY     91  68  46 SW5       30.04F HX  95
LANSING        MOSUNNY   94  66  39 SW12      30.01F HX  97
LAPEER         FAIR      92  64  40 S6        30.04F HX  93
MASON          SUNNY     94  65  38 SW6       30.03F HX  96
MONROE         SUNNY     87  72  60 SE7       30.04S HX  94
MT. CLEMENS    MOSUNNY   84  73  69 SE13      30.05S HX  90
PONTIAC        MOSUNNY   90  68  48 S6        30.04F HX  94
PORT HOPE        N/A     79  69  71 SE8       30.02F
PORT HURON     SUNNY     88  72  58 S5        30.06S HX  94
TRI CITIES     SUNNY     93  71  48 SW8       30.01F HX 100
MIDLAND        FAIR      93  69  44 SW6       30.00F HX  98
TROY           MOSUNNY   90  70  50 S7        30.06S HX  95
SAGINAW HB     MOSUNNY   91  68  46 SW6       30.00F HX  95
$$
MIZ043>046-050>051-056>058-064>065-071>073-077>080-212100-
SOUTHWEST LOWER MICHIGAN

CITY           SKY/WX    TMP DP  RH WIND       PRES   REMARKS
BATTLE CREEK   MOSUNNY   93  70  46 S5        30.03F HX  99
BENTON HARBOR  SUNNY     85  70  60 NW3       30.02F
BIG RAPIDS     MOSUNNY   87  65  48 W10       30.03S
COLDWATER      MOSUNNY   90  65  43 S6        30.04F HX  92
FREMONT        FAIR      86  68  55 SW9       30.03S
HOLLAND        MOSUNNY   89  69  51 VRB6      30.03F HX  93
GRAND RAPIDS   PTSUNNY   93  69  45 W5        30.01F HX  98
IONIA          FAIR      94  64  36 W6        29.99F HX  96
KALAMAZOO      MOSUNNY   90  68  48 S8        30.03S HX  94
LUDINGTON      MOSUNNY   74  68  80 SW8       30.03R
MARSHALL       MOSUNNY   88  68  52 S5        30.03F HX  91
MOUNT PLEASANT PTSUNNY   92  68  46 W6        30.01F HX  96
MUSKEGON       PTSUNNY   84  68  58 W5        30.03S
SOUTH HAVEN    SUNNY     86  71  60 NW6       30.02F HX  91
$$
MIZ016>042-212100-
NORTHERN LOWER MICHIGAN

CITY           SKY/WX    TMP DP  RH WIND       PRES   REMARKS
ALPENA         PTSUNNY   80  71  74 NE10      30.02S
BEAVER ISLAND  SUNNY     79  67  68 E3        30.02S
BELLAIRE       MOSUNNY   85  66  52 NW5       30.00S
CADILLAC       CLOUDY    91  65  43 SW9       30.04S HX  93
CHARLEVOIX     SUNNY     76  67  74 N5        30.05S
FRANKFORT      CLOUDY    79  69  70 NW3       30.02S
GAYLORD        MOSUNNY   86  63  45 W6        30.03F
GRAYLING       MOSUNNY   87  68  53 S9        30.04S HX  90
HARBOR SPRINGS PTSUNNY   73  69  85 SW5       30.02R
HOUGHTON LAKE  MOSUNNY   87  69  54 SW5       30.04S HX  91
MANISTEE       MOSUNNY   77  66  68 W9        30.02S
OSCODA         SUNNY     86  67  52 S12G20    30.01F
PELLSTON       PTSUNNY   84  70  62 NE9       30.02S
ROGERS CITY    SUNNY     74  68  81 NE5       30.04S
TRAVERSE CITY  PTSUNNY   78  68  71 NE7       30.00R
$$
MIZ007>008-015-212100-
EASTERN UPPER MICHIGAN

CITY           SKY/WX    TMP DP  RH WIND       PRES   REMARKS
KINROSS        CLOUDY    75  68  78 E6        30.04F
MACKINAC ISLAN SUNNY     74  67  78 E8        30.03S
NEWBERRY       CLOUDY    75  72  91 NE8       30.02F
S. S. MARIE    CLOUDY    77  68  73 SE6       30.03F
MUNISING         N/A     64  61  90 NE8       30.03F
$$
MIZ004>006-011>014-085-212100-
CENTRAL UPPER MICHIGAN

CITY           SKY/WX    TMP DP  RH WIND       PRES   REMARKS
MANISTIQUE     SUNNY     75  69  81 SE8       30.01S
ESCANABA       SUNNY     75  67  76 SE12      30.00S
MENOMINEE      MOSUNNY   75  67  76 E8        30.02S
SAWYER-GWINN   SUNNY     70  57  64 NE10      30.04F
$$
MIZ001>003-009>011-084-212100-
WESTERN UPPER MICHIGAN

CITY           SKY/WX    TMP DP  RH WIND       PRES   REMARKS
IRON MOUNTAIN  MOSUNNY   79  64  60 SE6       29.99F
HOUGHTON       SUNNY     68  48  48 E12       30.01F
COPPER HARBOR    N/A     64  54  69 VRB6      30.04F
IRONWOOD       SUNNY     79  59  50 SE7       29.96F
$$

ABBREVIATIONS USED IN REMARKS
   TC - TEMPERATURE IN CELSIUS
  WCI - WIND CHILL INDEX
   HX - HEAT INDEX
  VSB - VISIBILITY





USA.gov is the U.S. government's official web portal to all federal, state and local government web resources and services.